Probability
0 0 0 0 0 0 0 0 0 0 0 0 0 0 0 0 0 0 0 0 0 0 0 0 0 0 0 0 0 0 0 0 0 0 0 0 0 0 0 0 0 0 0
0 0 0 0 0 0 0 0 0 0 0 0 0 0 0 0 0 0 0 0 0 0 0 0 0 0 0 0 0 0 0 0 0 0 0 0 0 0 0 0 0 0 0
0 0 0 0 0 0 0 0 0 0 0 0 0 0 0 0 0 0 0 0 0 0 0 0 0 0 0 0 0 0 0 0 0 0 0 0 0 0 0 0 0 0 0
0 0 0 0 0 0 0 0 0 0 0 0 0 0 0 0 0 0 0 0 0 0 0 0 0 0 0 0 0 0 0 0 0 0 0 0 0 0 0 0 0 0 0
0 0 0 0 0 0 0 0 0 0 0 0 0 0 0 0 0 0 0 0 0 0 0 0 0 0 0 0 0 0 0 0 0 0 0 0 0 0 0 0 0 0 0
0 0 0 0 0 0 0 0 0 0 0 0 0 0 0 0 0 0 0 0 0 0 0 0 0 0 0 0 0 0 0 0 0 0 0 0 0 0 0 0 0 0 0
0 0 0 0 0 0 0 0 0 0 0 0 0 0 0 0 0 0 0 0 0 0 0 0 0 0 0 0 0 0 0 0 0 0 0 0 0 0 0 0 0 0 0
0 0 0 0 0 0 0 0 0 0 0 0 0 0 0 0 0 0 0 0 0 0 0 0 0 0 0 0 0 0 0 0 0 0 0 0 0 0 0 0 0 0 0
0 0 0 0 0 0 0 0 0 0 0 0 0 0 0 0 0 0 0 0 0 0 0 0 0 0 0 0 0 0 0 0 0 0 0 0 0 0 0 0 0 0 0
0 0 0 0 0 0 0 0 0 0 0 0 0 0 0 0 0 0 0 0 0 0 0 0 0 0 0 0 0 0 0 0 0 0 0 0 0 0 0 0 0 0 0
0 0 0 0 0 0 0 0 0 0 0 0 0 0 0 0 0 0 0 0 0 0 0 0 0 0 0 0 0 0 0 0 0 0 0 0 0 0 0 0 0 0 0
0 0 0 0 0 0 0 0 0 0 0 0 0 0 0 0 0 0 0 0 0 0 0 0 0 0 0 0 0 0 0 0 0 0 0 0 0 0 0 0 0 0 0
0 0 0 0 0 0 0 0 0 0 0 0 0 0 0 0 0 0 0 0 0 0 0 0 0 0 0 0 0 0 0 0 0 0 0 0 0 0 0 0 0 0 0
0 0 0 0 0 0 0 0 0 0 0 0 0 0 0 0 0 0 0 0 0 0 0 0 0 0 0 0 0 0 0 0 0 0 0 0 0 0 0 0 0 0 0
0 0 0 0 0 0 0 0 0 0 0 0 0 0 0 0 0 0 0 0 0 0 0 0 0 0 0 0 0 0 0 0 0 0 0 0 0 0 0 0 0 0 0
0 0 0 0 0 0 0 0 0 0 0 0 0 0 0 0 0 0 0 0 0 0 0 0 0 0 0 0 0 0 0 0 0 0 0 0 0 0 0 0 0 0 0
0 0 0 0 0 0 0 0 0 0 0 0 0 0 0 0 0 0 0 0 0 0 0 0 0 0 0 0 0 0 0 0 0 0 0 0 0 0 0 0 0 0 0
0 0 0 0 0 0 0 0 0 0 0 0 0 0 0 0 0 0 0 0 0 0 0 0 0 0 0 0 0 0 0 0 0 0 0 0 0 0 0 0 0 0 0
0 0 0 0 0 0 0 0 0 0 0 0 0 0 0 0 0 0 0 0 0 0 0 0 0 0 0 0 0 0 0 0 0 0 0 0 0 0 0 0 0 0 0
0 0 0 0 0 0 0 0 0 0 0 0 0 0 0 0 0 0 0 0 0 0 0 0 0 0 0 0 0 0 0 0 0 0 0 0 0 0 0 0 0 0 0
0 0 0 0 0 0 0 0 0 0 0 0 0 0 0 0 0 0 0 0 0 0 0 0 0 0 0 0 0 0 0 0 0 0 0 0 0 0 0 0 0 0 0
0 0 0 0 0 0 0 0 0 0 0 0 0 0 0 0 0 0 0 0 0 0 0 0 0 0 0 0 0 0 0 0 0 0 0 0 0 0 0 0 0 0 0
0 0 0 0 0 0 0 0 0 0 0 0 0 0 0 0 0 0 0 0 0 0 0 0 0 0 0 0 0 0 0 0 0 0 0 0 0 0 0 0 0 0 0
0 0 0 0 0 0 0 0 0 0 0 0 0 0 0 0 0 0 0 0 0 0 0 0 0 0 0 0 0 0 0 0 0 0 0 0 0 0 0 0 0 0 0
0 0 0 0 0 0 0 0 0 0 0 0 0 0 0 0 0 0 0 0 0 0 0 0 0 0 0 0 0 0 0 0 0 0 0 0 0 0 0 0 0 0 0
0 0 0 0 0 0 0 0 0 0 0 0 0 0 0 0 0 0 0 0 0 0 0 0 0 0 0 0 0 0 0 0 0 0 0 0 0 0 0 0 0 0 0
Height
5772 5772 5771 5771 5771 5770 5770 5770 5770 5770 5770 5771 5771 5771 5772 5773 5774 5775 5776 5777 5778 5778 5779 5780 5781 5782 5783 5784 5785 5785 5786 5786 5786 5786 5785 5785 5784 5783 5782 5780 5779 5778 5776
5766 5766 5765 5765 5765 5765 5764 5764 5764 5764 5765 5765 5765 5766 5767 5768 5768 5769 5770 5771 5772 5773 5773 5774 5775 5776 5777 5777 5778 5778 5778 5778 5778 5778 5777 5776 5776 5775 5773 5772 5770 5769 5767
5761 5760 5759 5759 5759 5759 5759 5759 5759 5759 5759 5759 5760 5761 5761 5762 5763 5764 5764 5765 5766 5767 5767 5768 5769 5769 5770 5770 5770 5771 5771 5771 5770 5770 5769 5768 5767 5766 5764 5763 5761 5759 5757
5755 5754 5754 5753 5753 5753 5753 5753 5753 5753 5754 5754 5755 5755 5756 5756 5757 5758 5759 5760 5760 5761 5762 5762 5762 5763 5763 5763 5764 5764 5763 5763 5762 5762 5761 5760 5759 5757 5756 5754 5752 5750 5748
5748 5748 5748 5748 5747 5747 5747 5747 5748 5748 5748 5749 5749 5750 5751 5751 5752 5753 5753 5754 5755 5755 5755 5756 5756 5756 5757 5757 5757 5756 5756 5755 5754 5754 5753 5752 5750 5749 5747 5745 5744 5742 5740
5742 5742 5742 5742 5742 5742 5742 5742 5742 5743 5743 5743 5744 5744 5745 5746 5746 5747 5748 5748 5749 5749 5750 5750 5750 5750 5750 5750 5750 5749 5749 5748 5747 5746 5745 5744 5742 5741 5739 5737 5735 5734 5732
5736 5736 5736 5736 5736 5736 5736 5737 5737 5737 5738 5738 5739 5739 5740 5741 5741 5742 5743 5743 5744 5744 5744 5744 5744 5744 5744 5744 5743 5743 5742 5741 5740 5739 5738 5736 5735 5733 5731 5729 5727 5725 5723
5730 5730 5730 5730 5730 5731 5731 5732 5733 5733 5733 5734 5734 5735 5736 5736 5737 5737 5738 5738 5739 5739 5739 5739 5739 5739 5738 5738 5737 5737 5735 5734 5733 5732 5731 5729 5728 5726 5724 5722 5720 5718 5716
5725 5725 5725 5725 5726 5726 5727 5728 5728 5729 5729 5730 5730 5731 5731 5732 5732 5733 5733 5734 5734 5734 5734 5734 5734 5734 5733 5732 5732 5731 5730 5728 5727 5726 5724 5722 5721 5719 5717 5715 5713 5711 5710
5721 5721 5721 5721 5722 5723 5723 5724 5725 5725 5726 5726 5727 5727 5728 5728 5728 5729 5730 5730 5730 5730 5730 5729 5729 5729 5728 5727 5727 5725 5724 5723 5721 5720 5718 5717 5715 5713 5711 5709 5707 5706 5704
5717 5717 5718 5719 5719 5720 5721 5721 5722 5722 5723 5723 5724 5724 5725 5725 5726 5726 5726 5726 5726 5726 5726 5725 5725 5724 5723 5723 5722 5721 5719 5718 5716 5715 5713 5712 5710 5708 5706 5704 5702 5701 5699
5715 5715 5716 5716 5717 5718 5718 5719 5720 5720 5720 5721 5721 5722 5722 5723 5723 5723 5724 5724 5724 5723 5723 5722 5721 5721 5720 5719 5718 5716 5715 5713 5712 5711 5709 5708 5706 5704 5702 5700 5698 5696 5695
5713 5714 5714 5715 5716 5717 5717 5718 5718 5718 5719 5719 5720 5720 5720 5720 5721 5721 5721 5721 5721 5721 5720 5719 5718 5718 5717 5716 5714 5713 5711 5710 5709 5707 5705 5704 5702 5700 5698 5697 5695 5693 5691
5713 5713 5714 5715 5716 5716 5717 5717 5718 5718 5718 5718 5718 5718 5718 5718 5719 5719 5719 5719 5719 5718 5718 5717 5716 5715 5714 5713 5711 5710 5709 5707 5705 5704 5702 5701 5699 5697 5696 5694 5692 5690 5689
5713 5714 5714 5715 5716 5717 5717 5717 5717 5718 5718 5718 5718 5718 5718 5718 5717 5717 5717 5717 5717 5717 5716 5716 5715 5714 5712 5711 5709 5708 5707 5705 5703 5702 5700 5699 5697 5695 5693 5691 5690 5688 5686
5714 5715 5715 5716 5717 5717 5717 5718 5718 5718 5718 5718 5718 5718 5718 5718 5717 5717 5717 5717 5717 5716 5716 5715 5714 5713 5711 5710 5709 5707 5706 5704 5702 5701 5699 5697 5695 5694 5692 5690 5688 5686 5684
5715 5716 5717 5717 5718 5718 5719 5719 5719 5719 5719 5719 5719 5719 5719 5719 5719 5718 5718 5718 5717 5717 5716 5715 5714 5713 5712 5710 5709 5707 5706 5704 5702 5700 5698 5696 5694 5693 5691 5689 5687 5685 5683
5717 5718 5718 5719 5719 5720 5720 5720 5721 5721 5721 5721 5721 5721 5721 5721 5720 5720 5719 5719 5718 5718 5717 5716 5715 5714 5712 5711 5709 5708 5706 5704 5702 5700 5698 5696 5694 5692 5690 5688 5687 5685 5682
5720 5720 5720 5721 5721 5722 5722 5722 5723 5723 5723 5723 5723 5723 5723 5723 5722 5722 5721 5721 5720 5719 5718 5717 5716 5715 5714 5712 5710 5709 5707 5705 5703 5701 5699 5697 5695 5693 5690 5688 5686 5684 5682
5722 5723 5723 5724 5724 5724 5725 5725 5726 5726 5726 5726 5726 5726 5726 5725 5725 5724 5724 5723 5722 5721 5720 5719 5718 5717 5715 5714 5712 5710 5708 5706 5704 5702 5700 5698 5695 5693 5691 5688 5686 5684 5681
5725 5726 5726 5727 5727 5728 5728 5729 5729 5729 5729 5730 5730 5729 5729 5728 5728 5727 5727 5726 5725 5724 5723 5722 5720 5719 5717 5716 5714 5712 5710 5708 5706 5703 5701 5699 5696 5694 5691 5688 5686 5683 5681
5729 5730 5730 5731 5732 5732 5733 5733 5733 5733 5733 5733 5733 5733 5732 5732 5731 5731 5730 5729 5728 5727 5726 5724 5723 5721 5719 5718 5716 5714 5711 5709 5707 5704 5702 5699 5697 5694 5691 5689 5686 5683 5681
5733 5734 5735 5735 5736 5736 5737 5737 5737 5737 5737 5737 5737 5736 5736 5735 5735 5734 5733 5732 5731 5730 5728 5727 5725 5723 5721 5719 5717 5715 5713 5710 5708 5705 5703 5700 5697 5695 5692 5689 5686 5683 5680
5738 5738 5739 5740 5740 5741 5741 5741 5741 5741 5741 5741 5740 5740 5739 5739 5738 5737 5736 5735 5734 5733 5731 5729 5728 5726 5723 5721 5719 5717 5714 5712 5709 5706 5703 5701 5698 5695 5691 5688 5685 5682 5679
5742 5743 5743 5744 5744 5745 5745 5745 5745 5745 5745 5744 5744 5743 5743 5742 5741 5740 5739 5738 5737 5735 5734 5732 5730 5728 5725 5723 5721 5718 5715 5713 5710 5707 5704 5700 5697 5694 5691 5688 5684 5681 5678
5746 5747 5747 5748 5748 5748 5749 5749 5749 5748 5748 5748 5748 5747 5746 5745 5744 5743 5742 5741 5739 5738 5736 5734 5732 5730 5727 5725 5722 5719 5717 5714 5710 5707 5704 5700 5697 5694 5690 5687 5683 5680 5676
Wind_Speed
21 21 21 21 22 22 22 22 22 22 23 24 23 22 23 24 25 26 27 27 27 26 26 27 27 29 30 31 32 33 34 34 34 35 36 36 36 36 37 37 38 38 39
20 20 21 21 21 21 21 21 21 21 21 22 23 23 23 24 24 25 26 26 26 25 26 26 27 28 29 30 30 31 32 33 34 34 35 37 36 36 37 38 38 39 40
20 20 20 21 21 21 21 21 21 21 21 21 21 22 22 23 23 24 24 25 25 25 25 26 28 28 28 29 29 30 31 32 33 34 34 35 36 36 37 37 38 39 40
20 20 21 21 21 21 21 21 21 21 22 22 22 21 22 22 22 23 23 24 24 24 26 26 26 27 28 28 29 30 30 31 32 33 34 35 36 36 37 37 38 39 39
21 21 20 21 21 20 20 21 20 20 21 22 22 22 22 21 21 22 22 23 24 24 25 26 27 27 27 28 29 29 30 30 31 33 34 34 35 35 36 37 37 37 37
20 21 20 21 21 20 19 20 20 19 19 20 21 21 21 21 21 21 22 23 23 23 24 25 25 26 27 27 27 28 28 29 30 31 32 33 33 34 35 35 35 34 34
20 19 19 19 19 18 18 18 18 17 17 17 17 17 18 18 19 19 19 20 21 21 22 23 23 23 24 24 25 26 26 27 28 29 29 30 31 31 31 31 31 31 30
17 17 17 17 17 16 16 15 16 15 15 14 14 15 15 15 15 16 17 17 18 19 19 20 20 21 22 23 23 24 24 25 26 26 27 27 28 28 28 28 27 27 26
14 14 14 14 13 13 13 14 13 13 13 13 13 14 14 14 14 15 15 15 16 16 17 17 18 19 19 20 20 21 22 22 22 22 23 24 23 23 23 23 23 23 22
11 11 10 10 10 10 11 11 11 11 11 11 11 11 11 11 12 12 12 13 13 14 15 15 16 17 17 18 18 19 19 19 19 20 19 19 19 19 19 19 20 20 20
9 9 8 8 9 8 9 9 9 9 9 9 9 9 9 9 9 9 10 11 11 12 13 14 14 15 15 15 16 16 16 16 16 16 16 17 17 17 17 17 18 18 18
7 6 7 7 7 7 7 7 7 6 7 7 7 7 8 8 8 8 8 9 10 10 11 12 12 12 13 13 13 14 14 14 14 15 15 15 15 15 16 16 16 16 16
5 5 5 4 4 5 5 4 4 4 4 5 5 5 6 6 7 7 8 9 9 9 9 9 9 10 10 11 11 12 12 12 13 13 13 13 13 13 14 14 14 13 13
4 4 3 3 3 3 2 2 2 2 2 3 3 4 4 5 6 6 6 7 6 6 6 7 8 8 9 9 10 10 10 11 11 11 12 12 12 12 12 12 12 12 11
5 5 4 4 3 3 2 2 1 1 1 1 1 1 1 2 2 2 3 3 3 3 4 5 6 6 7 8 8 9 9 9 9 9 10 10 10 11 11 11 11 10 10
6 6 5 5 5 4 4 4 3 3 3 3 3 3 3 3 3 3 3 3 3 4 4 4 5 5 6 7 7 7 8 8 8 8 8 9 9 9 9 9 9 9 9
7 7 6 6 6 6 6 6 6 6 5 5 5 6 6 6 6 6 5 5 5 5 5 5 5 6 6 7 7 8 8 8 9 9 8 8 8 8 8 8 8 9 9
8 8 8 8 8 8 7 7 7 7 8 8 8 8 8 8 8 8 8 8 8 8 8 8 7 7 8 8 8 9 9 9 9 9 9 9 9 8 8 8 8 9 9
10 10 10 10 9 9 9 9 10 10 10 10 10 10 10 9 9 10 10 10 10 10 9 9 9 9 9 9 10 10 10 10 10 10 10 10 10 9 9 9 9 9 9
11 11 11 11 12 12 12 13 13 12 12 12 12 11 11 11 11 11 10 10 10 10 11 11 10 10 10 10 10 11 11 11 10 11 11 11 11 11 11 11 10 10 10
13 13 13 14 15 15 15 14 14 14 14 13 13 13 13 13 12 12 12 11 11 11 11 11 11 11 11 11 11 11 11 12 12 12 12 12 12 12 12 12 11 11 11
15 16 16 16 16 16 15 15 15 15 14 14 14 14 13 13 13 13 13 12 12 12 12 12 12 12 12 12 12 12 12 12 13 13 13 13 13 13 13 13 13 12 12
16 17 16 16 16 16 15 15 14 14 14 14 13 13 13 13 14 14 14 13 13 13 12 12 12 12 12 13 13 13 13 13 13 14 14 14 14 14 14 14 14 14 13
16 16 16 16 15 15 14 14 14 14 14 14 14 13 13 13 13 13 13 13 13 13 13 13 13 13 13 14 14 14 14 14 15 15 15 15 15 15 15 15 15 15 15
15 15 15 15 15 14 14 14 14 14 14 14 14 14 14 13 13 13 13 13 13 13 14 14 14 14 14 15 15 15 15 16 16 16 16 16 16 16 16 16 17 17 17
15 14 14 14 14 14 14 14 14 14 14 14 13 13 13 13 13 13 13 13 13 13 13 14 14 15 15 15 16 16 17 17 17 18 18 18 18 18 18 19 19 19 19
Wind_Direction
272 268 266 266 267 268 268 266 264 261 260 259 256 253 251 251 248 245 247 250 250 250 250 250 251 251 252 251 252 254 256 258 261 263 265 267 270 272 274 274 276 278 280
276 271 266 265 266 268 268 266 262 261 259 258 256 255 253 250 250 248 246 249 251 251 252 253 253 253 254 254 256 258 261 262 263 265 268 270 271 273 274 276 278 280 282
277 274 271 269 267 267 266 264 262 259 257 256 254 254 253 251 250 250 249 251 252 254 254 255 256 257 259 259 260 262 264 265 266 268 270 271 274 275 278 279 281 283 285
277 274 273 270 269 268 266 264 261 259 257 256 255 254 254 255 255 255 254 252 254 256 257 258 261 262 264 263 263 264 266 267 268 270 272 275 277 280 282 283 284 285 286
278 275 272 269 269 268 267 265 262 261 259 257 257 257 255 255 255 257 257 258 259 260 262 262 262 264 265 266 267 269 270 272 275 276 277 278 281 282 283 284 285 286 287
277 274 271 270 268 268 267 266 264 264 260 258 258 257 254 255 258 259 260 261 262 264 266 267 268 270 271 273 274 276 277 278 279 280 280 281 282 283 283 285 286 288 289
276 273 270 269 268 267 268 265 265 265 262 260 259 258 258 259 259 260 262 263 264 265 267 269 270 272 274 277 278 280 281 282 282 283 284 284 284 284 285 287 289 290 291
276 272 269 266 264 265 265 264 264 263 262 260 260 260 259 261 261 264 265 266 268 271 272 274 275 275 278 280 280 282 284 285 285 285 286 287 287 288 289 290 291 292 292
273 271 268 264 261 261 260 261 261 259 259 256 257 259 258 260 263 267 268 269 270 273 274 276 278 280 283 284 284 285 286 286 287 288 289 290 290 292 293 294 293 292 291
270 266 260 259 257 255 256 259 260 257 253 253 255 258 259 260 263 267 269 271 272 276 278 281 283 283 285 285 285 287 288 290 292 293 294 296 297 297 296 295 295 294 293
266 258 252 251 249 249 252 254 258 255 252 251 252 257 259 260 265 268 272 275 277 280 282 284 286 287 289 290 292 292 293 293 294 295 297 299 300 300 299 298 297 296 295
257 246 244 242 242 242 243 248 249 252 253 250 250 258 263 265 268 273 275 280 283 286 287 287 290 293 295 295 295 296 297 298 298 299 300 300 300 301 302 301 300 298 297
230 221 220 223 227 226 228 232 235 242 245 248 257 266 266 270 273 280 281 286 289 294 295 295 301 304 304 303 302 304 305 304 303 303 303 305 306 306 306 305 304 303 301
186 183 184 187 188 192 199 205 222 242 245 258 271 279 279 277 279 281 288 293 294 301 309 314 315 315 314 315 317 318 317 313 310 310 310 311 312 311 310 309 308 308 306
137 136 136 139 147 155 150 142 152 214 233 224 249 306 315 308 296 291 298 308 323 332 334 334 332 332 332 333 333 331 327 325 323 323 322 321 319 318 318 317 316 314 312
131 130 127 128 129 127 122 115 111 114 110 104 88 74 68 61 65 67 61 47 31 18 8 5 2 0 358 355 353 351 350 349 346 341 337 334 332 330 330 329 326 323 319
126 125 124 122 119 116 114 111 107 103 97 93 89 88 87 84 79 73 67 60 53 47 43 39 34 28 22 18 17 13 10 7 3 358 353 348 345 344 342 341 340 337 333
119 118 117 117 116 111 107 103 99 95 94 94 92 90 87 83 80 77 74 71 67 62 57 53 48 42 37 32 27 23 19 16 13 10 7 4 1 358 355 351 346 340 337
112 110 109 109 108 106 105 102 98 97 96 94 91 88 86 84 82 79 76 71 67 64 61 58 53 48 44 40 35 31 26 22 20 18 16 12 9 5 0 355 349 343 339
110 108 107 106 105 105 104 101 98 97 96 95 92 88 85 83 81 79 75 71 68 65 62 59 55 51 48 43 38 33 30 26 23 19 16 13 10 6 1 357 353 349 345
108 106 103 103 104 104 104 102 99 97 95 92 89 86 85 83 80 77 75 72 69 65 62 59 55 51 46 42 38 35 31 28 24 19 16 12 10 7 4 1 358 354 350
107 107 107 106 105 104 103 101 99 96 93 90 89 87 84 82 79 76 73 69 67 64 61 57 52 46 42 38 34 31 28 24 22 20 17 13 10 7 4 1 358 355 352
109 109 108 107 106 104 102 99 97 95 93 91 89 87 84 80 77 75 71 67 63 60 55 50 46 42 38 35 33 30 27 23 20 17 13 9 6 3 359 356 354 352 350
111 111 110 108 107 104 102 100 98 96 94 92 89 87 84 80 76 71 66 62 58 54 50 47 44 41 37 33 29 26 22 18 15 11 8 5 3 360 357 354 351 348 345
111 110 110 109 107 105 103 100 98 96 93 91 89 86 82 78 73 68 63 58 55 52 49 45 41 37 33 29 26 23 19 16 12 9 6 3 360 357 355 352 349 346 343
113 112 111 110 107 106 104 101 99 96 94 91 87 83 79 74 70 65 60 56 52 48 43 39 36 33 30 27 24 22 19 15 12 9 6 3 359 357 353 350 347 344 342